Regional Weather Roundup
Issued by NWS Charleston, WV

Home | Current Version | Previous Version | Text Only | Print | Product List | Glossary Off
Versions: 1 2 3 4 5 6 7 8 9 10 11 12 13 14 15 16 17 18 19 20 21 22 23 24 25 26 27 28 29 30 31 32 33 34 35 36 37 38 39 40 41 42 43 44 45 46 47 48 49 50

000
ASUS41 KRLX 171710
RWRRLX
West Virginia Regional Weather Roundup
National Weather Service Charleston WV
100 PM EDT WED SEP 17 2014

Note: "fair" indicates few or no clouds below 12,000 feet with no
significant weather and/or obstructions to visibility.

WVZ003-171800-
Northern Panhandle of West Virginia

CITY           SKY/WX    TMP DP  RH WIND       PRES   REMARKS
WHEELING       MOSUNNY   64  48  56 SW6       30.02F
$$

WVZ009-171800-
Northwest West Virginia

CITY           SKY/WX    TMP DP  RH WIND       PRES   REMARKS
PARKERSBURG    PTSUNNY   67  51  56 SE6       30.04F
$$

WVZ006-171800-
Western West Virginia

CITY           SKY/WX    TMP DP  RH WIND       PRES   REMARKS
HUNTINGTON     CLOUDY    65  53  65 NE5       30.02S
$$

WVZ015-171800-
West Central West Virginia

CITY           SKY/WX    TMP DP  RH WIND       PRES   REMARKS
CHARLESTON     PTSUNNY   64  57  78 E3        30.01F
$$

WVZ031-171800-
North Central West Virginia

CITY           SKY/WX    TMP DP  RH WIND       PRES   REMARKS
CLARKSBURG     MOSUNNY   67  50  54 CALM      30.01F
MORGANTOWN     MOSUNNY   67  46  47 CALM      30.03F
$$

WVZ035-042-045-171800-
South Central West Virginia

CITY           SKY/WX    TMP DP  RH WIND       PRES   REMARKS
BECKLEY        PTSUNNY   65  53  65 SE7       30.04F
BLUEFIELD      CLOUDY    63  52  67 VRB6      30.05F
LEWISBURG      CLOUDY    65  51  60 S3        30.05S
$$

WVZ047-171800-
Northern Mountains of West Virginia

CITY           SKY/WX    TMP DP  RH WIND       PRES   REMARKS
ELKINS         MOSUNNY   66  48  52 VRB7      30.03F
$$

WVZ052-171800-
Eastern Panhandle of West Virginia

CITY           SKY/WX    TMP DP  RH WIND       PRES   REMARKS
MARTINSBURG    CLOUDY    70  45  40 CALM      30.04F
PETERSBURG     SUNNY     69  47  44 NE6       30.03F
$$



USA.gov is the U.S. government's official web portal to all federal, state and local government web resources and services.